Location: Claremont
(33.9858°S, 18.4575°E)
Time: 21:08:04
(UTC+00:00)

SL-16 R/B - Pass Details

Date: 03 March 2021
Orbit: 840 x 850 km, 71.0° (Epoch: 20 April)

Event Time Altitude Azimuth Distance (km) Brightness Sun altitude
Rises 18:37:21 0° 201° (SSW) 3,425 6.0 -16.4°
Reaches altitude 10° 18:39:49 10° 200° (SSW) 2,483 5.2 -16.9°
Maximum altitude 18:45:32 87° 111° (ESE) 853 2.1 -18.0°
Enters shadow 18:49:35 20° 21° (NNE) 1,860 3.6 -18.8°
